Location: Songkhla
(7.2000°N, 100.6000°E)
Time: 07:49:24
(UTC+07:00)

Cosmos 2327 Rocket - Pass Details

Date: 16 April 2026
Orbit: 944 x 1006 km, 83.0° (Epoch: 17 May)

Event Time Altitude Azimuth Distance (km) Brightness Sun altitude
Rises 19:50:37 0° 186° (S) 3,606 7.4 -21.3°
Reaches altitude 10° 19:53:05 10° 187° (S) 2,664 6.7 -21.9°
Maximum altitude 19:59:10 79° 273° (W) 971 4.5 -23.4°
Drops below altitude 10° 20:05:19 10° 360° (N) 2,693 7.0 -24.9°
Sets 20:07:50 0° 1° (N) 3,647 7.7 -25.5°
